AirNav   Duncan Aviation - Near you to keep you flying
 
 591 users online  

RI13 Foxridge Farm Heliport
West Kingston, Rhode Island, USA

GOING TO WEST KINGSTON?


FAA INFORMATION EFFECTIVE 19 MAY 2022

Location

FAA Identifier: RI13
Lat/Long: 41-29-40.3630N 071-33-22.2200W
41-29.672717N 071-33.370333W
41.4945453,-71.5561722
(estimated)
Elevation: 140 ft. / 43 m (estimated)
Variation: 15W (1990)
From city: 1 mile N of WEST KINGSTON, RI
Time zone: UTC -4 (UTC -5 during Standard Time)
Zip code: 02892

Heliport Operations

Heliport use: Private use. Permission required prior to landing
Activation date: 01/1993
Control tower: no
ARTCC: BOSTON CENTER
FSS: BRIDGEPORT FLIGHT SERVICE STATION
Attendance: UNATNDD
Segmented circle: no

Heliport Communications

WX ASOS at OQU (9 nm NE): 118.6
WX ASOS at UUU (13 nm E): 132.075 (401-846-5910)
WX ASOS at WST (14 nm SW): 132.375 (401-596-9543)
WX ASOS at PVD (15 nm NE): 124.2 (401-734-2818)
WX AWOS-3PT at BID (20 nm S): 134.775 (401-466-5495)

Nearby radio navigation aids

VOR radial/distance  VOR name  Freq  Var
PVDr216/14.9PROVIDENCE VOR/DME115.6014W
SEYr018/19.6SANDY POINT VOR/DME117.8015W
ORWr115/20.3NORWICH VOR/DME110.0014W
GONr080/24.4GROTON VOR/DME110.8514W
PUTr169/30.5PUTNAM VOR/DME117.4014W

Heliport Services

Runway Information

Helipad H1

Dimensions: 100 x 100 ft. / 30 x 30 m
Surface: turf
Traffic pattern: leftleft

Heliport Ownership and Management from official FAA records

Ownership: Privately-owned
Owner: CHARLES F SAMSON
592 FAIRGROUNDS RD
WEST KINGSTON, RI 02892
Phone 401-789-9562
Manager: CHARLES F SAMSON
592 FAIRGROUNDS RD
WEST KINGSTON, RI 02892
Phone 401-789-9562

Heliport Operational Statistics

Aircraft based on the field: 1
Helicopters: 1
    

Additional Remarks

FOR CD CTC PROVIDENCE APCH AT 401-738-8945, WHEN APCH CLSD CTC BOSTON ARTCC AT 603-879-6859.

Instrument Procedures

There are no published instrument procedures at RI13.

Some nearby airports with instrument procedures:

KOQU - Quonset State Airport (9 nm NE)
KUUU - Newport State Airport (13 nm E)
KWST - Westerly State Airport (14 nm SW)
KPVD - Rhode Island TF Green International Airport (15 nm NE)
KBID - Block Island State Airport (20 nm S)
 
Loc | Ops | Rwys | IFR | FBO | Links
Com | Nav | Svcs | Stats | Notes
Area around RI13 (Foxridge Farm Heliport)
 
Road maps at: MapQuest Bing Google
 
Aerial photo
No photo
 
Sectional chart

 
Airport distance calculator
Flying to Foxridge Farm Heliport? Find the distance to fly.

From to RI13

Sunrise and sunset
Times for 27-May-2022
 Local
(UTC-4)
 Zulu
(UTC)
Morning civil twilight04:4608:46
Sunrise05:1809:18
Sunset20:0800:08
Evening civil twilight20:4100:41

Current date and time
Zulu (UTC)  27-May-2022 06:54:42
Local (UTC-4)  27-May-2022 02:54:42
 
METAR
KOQU 
9nm NE 
270250Z 25010KT 10SM FEW030 BKN200 16/13 A3014 RMK LAST
KUUU 
12nm E 
270640Z AUTO VRB05KT 2SM -RA BR OVC003 16/16 A3007 RMK AO2 P0002 T01560156
KWST 
14nm SW 
270629Z AUTO 19004KT 2SM -RA BR OVC002 16/15 A3007 RMK AO2 P0000 T01560150
KPVD 
14nm N 
270612Z 18006KT 10SM FEW015 BKN021 OVC037 16/14 A3008 RMK AO2 T01610144
KBID 
20nm S 
270640Z AUTO 20009KT 3/4SM -RA BR OVC003 15/14 A3007 RMK AO2 P0000
TAF
KPVD 
14nm N 
270536Z 2706/2806 20007KT P6SM OVC025 FM270800 19007KT 5SM -DZ BR OVC008 FM270900 19007KT 2SM -DZ BR OVC003 FM271400 20011G19KT P6SM BKN012 FM272300 20012G24KT 3SM BR SCT003 OVC008
NOTAMs
Click for the latest NOTAMs
NOTAMs are issued by the DoD/FAA and will open in a separate window not controlled by AirNav.

 

 
 

Would you like to see your business listed on this page?

 If your business provides an interesting product or service to pilots, flight crews, aircraft, or users of the Foxridge Farm Heliport, you should consider listing it here.  To start the listing process, click on the button below
 
Add a business
 

Other Pages about Foxridge Farm Heliport

Update a link
 
Copyright © AirNav, LLC. All rights reserved. Privacy Policy  Contact